Weather History for Denver, CO

Change the Weather History Date:

Monday, August 18, 2014

  Actual Average (KDEN) Record (KDEN)
Temperature  
Mean Temperature 73 °F 72 °F  
Max Temperature 86 °F 87 °F 98 °F (1986)
Min Temperature 60 °F 58 °F 47 °F (1960)
Degree Days  
Heating Degree Days 0 0  
Month to date heating degree days 0  
Since 1 June heating degree days 68  
Since 1 July heating degree days 6  
Cooling Degree Days 8 8  
Month to date cooling degree days 162  
Year to date cooling degree days 606  
Since 1 June cooling degree days 584  
Growing Degree Days 23 (Base 50)    
Moisture  
Dew Point 43 °F    
Average Humidity 42    
Maximum Humidity 59    
Minimum Humidity 20    
Precipitation  
Precipitation 0.00 in 0.06 in 1.62 in (2004)
Month to date precipitation 1.16  
Year to date precipitation 10.83  
Snow  
Snow 0.00 in - - ()
Month to date snowfall  
Since 1 June snowfall  
Since 1 July snowfall  
Snow Depth -    
Sea Level Pressure  
Sea Level Pressure 30.10 in    
Wind  
Wind Speed 10 mph (SW)    
Max Wind Speed 14 mph    
Max Gust Speed 23 mph    
Visibility 10 miles    
Events      
T = Trace of Precipitation, MM = Missing Value Source: NWS Daily Summary

Daily Weather History Graph

Daily Weather History Graph

Search for Another Location

Airport:

Trip Planner

Search our weather history database for the weather conditions in past years. The results will help you decide how hot, cold, wet, or windy it might be!

Date:

Astronomy

Aug. 18, 2014 Rise Set
Actual Time 6:13 AM MDT 7:50 PM MDT
Civil Twilight 5:44 AM MDT 8:18 PM MDT
Nautical Twilight 5:09 AM MDT 8:53 PM MDT
Astronomical Twilight 4:32 AM MDT 9:29 PM MDT
Moon 12:22 AM MDT (8/18) 2:55 PM MDT (8/18)
Length of Visible Light 14h 34m
Length of Day
13h 37m
Last Quarter, 38% of the Moon is Illuminated
Aug 18
Last Quarter
Aug 25
New
Sep 2
First Quarter
Sep 8
Full
Sep 15
Last Quarter

Hourly Weather History & Observations

Time (MDT) Temp. Dew Point Humidity Pressure Visibility Wind Dir Wind Speed Gust Speed Precip Events Conditions
12:16 AM 69.8 °F 42.8 °F 38% 30.11 in 10.0 mi SSW 13.8 mph - N/A   Clear
12:36 AM 69.8 °F 42.8 °F 38% 30.11 in 10.0 mi SSW 13.8 mph - N/A   Clear
12:57 AM 69.8 °F 42.8 °F 38% 30.11 in 10.0 mi SSW 11.5 mph - N/A   Clear
1:17 AM 69.8 °F 41.0 °F 35% 30.10 in 10.0 mi SW 12.7 mph - N/A   Clear
1:37 AM 69.8 °F 41.0 °F 35% 30.10 in 10.0 mi SW 10.4 mph - N/A   Clear
1:57 AM 69.8 °F 41.0 °F 35% 30.10 in 10.0 mi West 10.4 mph - N/A   Clear
2:17 AM 64.4 °F 42.8 °F 45% 30.10 in 10.0 mi West 11.5 mph - N/A   Clear
2:37 AM 62.6 °F 42.8 °F 48% 30.10 in 10.0 mi WSW 11.5 mph - N/A   Clear
2:57 AM 64.4 °F 42.8 °F 45% 30.09 in 10.0 mi WSW 8.1 mph - N/A   Clear
3:17 AM 66.2 °F 42.8 °F 43% 30.09 in 10.0 mi SW 10.4 mph - N/A   Clear
3:37 AM 68.0 °F 42.8 °F 40% 30.09 in 10.0 mi SW 10.4 mph - N/A   Clear
3:57 AM 66.2 °F 42.8 °F 43% 30.10 in 10.0 mi SW 8.1 mph - N/A   Clear
4:16 AM 64.4 °F 42.8 °F 45% 30.10 in 10.0 mi WSW 8.1 mph - N/A   Clear
4:37 AM 64.4 °F 42.8 °F 45% 30.10 in 10.0 mi WSW 9.2 mph - N/A   Clear
4:57 AM 64.4 °F 42.8 °F 45% 30.10 in 10.0 mi SW 6.9 mph - N/A   Clear
5:16 AM 62.6 °F 42.8 °F 48% 30.10 in 10.0 mi SW 9.2 mph - N/A   Clear
5:36 AM 64.4 °F 42.8 °F 45% 30.10 in 10.0 mi WSW 10.4 mph - N/A   Clear
5:57 AM 62.6 °F 42.8 °F 48% 30.10 in 10.0 mi WSW 10.4 mph - N/A   Clear
6:17 AM 62.6 °F 42.8 °F 48% 30.12 in 10.0 mi WSW 11.5 mph - N/A   Clear
6:36 AM 62.6 °F 42.8 °F 48% 30.12 in 10.0 mi WSW 9.2 mph - N/A   Clear
6:53 AM 62.6 °F 42.8 °F 48% 30.12 in 10.0 mi WSW 10.4 mph - N/A   Clear
10:47 AM 80.6 °F 42.8 °F 26% 30.12 in 50.0 mi Calm Calm - N/A   Scattered Clouds
12:52 PM 86.0 °F 44.6 °F 23% 30.10 in 50.0 mi NE 4.6 mph - N/A   Scattered Clouds
2:55 PM 86.0 °F 41.0 °F 20% 30.10 in 10.0 mi West 12.7 mph 23.0 mph N/A   Mostly Cloudy
9:16 PM 68.0 °F 46.4 °F 46% 30.06 in 10.0 mi SE 11.5 mph - N/A   Clear
9:37 PM 69.8 °F 44.6 °F 40% 30.06 in 10.0 mi SE 11.5 mph - N/A   Clear
10:13 PM 69.8 °F 44.6 °F 40% 30.09 in 10.0 mi East 10.4 mph - N/A   Clear
10:36 PM 64.4 °F 44.6 °F 49% 30.09 in 10.0 mi Calm Calm - N/A   Clear
10:52 PM 66.2 °F 44.6 °F 46% 30.10 in 10.0 mi Calm Calm - N/A   Clear
11:26 PM 60.8 °F 46.4 °F 59% 30.08 in 10.0 mi SSE 10.4 mph - N/A   Clear
11:57 PM 62.6 °F 48.2 °F 59% 30.09 in 10.0 mi SSE 6.9 mph - N/A   Clear